Location: Bambrugge
(50.9212°N, 3.9299°E)
Time: 22:00:22
(UTC+00:00)

SL-16 R/B - Pass Details

Date: 13 August 2024
Orbit: 842 x 845 km, 71.0° (Epoch: 10 September)

Event Time Altitude Azimuth Distance (km) Brightness Sun altitude
Exits shadow 01:55:40 - 275° (W) 2,807 4.7 -18.9°
Reaches altitude 10° 01:56:57 10° 284° (WNW) 2,470 4.4 -18.8°
Maximum altitude 02:00:49 18° 328° (NNW) 1,944 4.3 -18.5°
Drops below altitude 10° 02:04:42 10° 11° (N) 2,478 5.6 -18.2°
Sets 02:07:58 0° 30° (NNE) 3,416 7.1 -17.9°
